Meteo pe oră la Abergele

Astăzi, 3 August, Marţi

Timp Temperatura Precipitaţii Vânt Presiune Umiditate
00:00 +10°C° 0 mm 1 m/s 753 mmHg 91%
01:00 +10°C° 0 mm 1 m/s 753 mmHg 92%
02:00 +10°C° 0 mm 1 m/s 753 mmHg 92%
03:00 +10°C° 0 mm 1 m/s 753 mmHg 92%
04:00 +10°C° 0 mm 1 m/s 752 mmHg 91%
05:00 +11°C° 0 mm 1 m/s 752 mmHg 90%
06:00 +11°C° 0 mm 1 m/s 752 mmHg 89%
07:00 +14°C° 0 mm 1 m/s 752 mmHg 80%
08:00 +16°C° 0 mm 1 m/s 752 mmHg 72%
09:00 +19°C° 0 mm 1 m/s 752 mmHg 63%
10:00 +19°C° 0 mm 1 m/s 752 mmHg 61%
11:00 +20°C° 0 mm 1 m/s 752 mmHg 59%
12:00 +19°C° 0 mm 2 m/s 752 mmHg 57%
13:00 +19°C° 0 mm 2 m/s 752 mmHg 59%
14:00 +19°C° 0 mm 2 m/s 751 mmHg 60%
15:00 +19°C° 0 mm 2 m/s 751 mmHg 61%
16:00 +19°C° 0.1 mm 2 m/s 751 mmHg 65%
17:00 +18°C° 0.1 mm 2 m/s 751 mmHg 69%
18:00 +17°C° 0.1 mm 2 m/s 751 mmHg 73%
19:00 +16°C° 0 mm 1 m/s 751 mmHg 79%
20:00 +14°C° 0 mm 1 m/s 752 mmHg 85%
21:00 +13°C° 0 mm 1 m/s 752 mmHg 91%
22:00 +13°C° 0 mm 1 m/s 752 mmHg 92%
23:00 +12°C° 0 mm 1 m/s 752 mmHg 92%

Mâine, 4 August, Miercuri

Timp Temperatura Precipitaţii Vânt Presiune Umiditate
00:00 +12°C° 0 mm 1 m/s 752 mmHg 92%
01:00 +12°C° 0 mm 1 m/s 752 mmHg 92%
02:00 +12°C° 0 mm 1 m/s 752 mmHg 92%
03:00 +11°C° 0 mm 1 m/s 752 mmHg 92%
04:00 +12°C° 0 mm 1 m/s 752 mmHg 90%
05:00 +12°C° 0 mm 1 m/s 752 mmHg 89%
06:00 +13°C° 0 mm 1 m/s 752 mmHg 87%
07:00 +15°C° 0 mm 1 m/s 752 mmHg 79%
08:00 +18°C° 0 mm 1 m/s 752 mmHg 71%
09:00 +20°C° 0 mm 1 m/s 752 mmHg 63%
10:00 +21°C° 0.1 mm 1 m/s 752 mmHg 63%
11:00 +21°C° 0.1 mm 1 m/s 752 mmHg 64%
12:00 +21°C° 0.1 mm 1 m/s 751 mmHg 64%
13:00 +21°C° 0.3 mm 1 m/s 751 mmHg 66%
14:00 +20°C° 0.3 mm 2 m/s 751 mmHg 68%
15:00 +19°C° 0.3 mm 2 m/s 751 mmHg 70%
16:00 +19°C° 0.1 mm 2 m/s 751 mmHg 70%
17:00 +19°C° 0.1 mm 2 m/s 751 mmHg 70%
18:00 +19°C° 0.1 mm 2 m/s 750 mmHg 70%
19:00 +17°C° 0 mm 2 m/s 750 mmHg 76%
20:00 +15°C° 0 mm 2 m/s 750 mmHg 83%
21:00 +13°C° 0 mm 2 m/s 750 mmHg 90%
22:00 +13°C° 0 mm 2 m/s 750 mmHg 90%
23:00 +12°C° 0 mm 3 m/s 749 mmHg 91%

Poimâine, 5 August, Joi

Timp Temperatura Precipitaţii Vânt Presiune Umiditate
00:00 +12°C° 0 mm 3 m/s 749 mmHg 91%
01:00 +11°C° 0 mm 3 m/s 748 mmHg 92%
02:00 +11°C° 0 mm 3 m/s 748 mmHg 93%
03:00 +11°C° 0 mm 3 m/s 747 mmHg 93%
04:00 +12°C° 0 mm 3 m/s 747 mmHg 92%
05:00 +12°C° 0 mm 3 m/s 746 mmHg 91%
06:00 +13°C° 0 mm 4 m/s 746 mmHg 89%
07:00 +14°C° 0 mm 4 m/s 745 mmHg 84%
08:00 +15°C° 0 mm 5 m/s 745 mmHg 79%
09:00 +16°C° 0 mm 5 m/s 744 mmHg 74%
10:00 +16°C° 0.1 mm 5 m/s 744 mmHg 77%
11:00 +16°C° 0.1 mm 6 m/s 743 mmHg 80%
12:00 +16°C° 0.1 mm 7 m/s 743 mmHg 83%
13:00 +16°C° 0.4 mm 6 m/s 742 mmHg 85%
14:00 +16°C° 0.4 mm 6 m/s 741 mmHg 88%
15:00 +16°C° 0.4 mm 6 m/s 741 mmHg 90%
16:00 +16°C° 0.2 mm 6 m/s 740 mmHg 90%
17:00 +16°C° 0.2 mm 5 m/s 740 mmHg 90%
18:00 +16°C° 0.2 mm 5 m/s 740 mmHg 91%
19:00 +15°C° 0.2 mm 5 m/s 740 mmHg 93%
20:00 +15°C° 0.2 mm 4 m/s 739 mmHg 95%
21:00 +14°C° 0.2 mm 4 m/s 739 mmHg 97%
22:00 +14°C° 0.1 mm 4 m/s 739 mmHg 97%
23:00 +14°C° 0.1 mm 4 m/s 739 mmHg 97%

6 August, Vineri

Timp Temperatura Precipitaţii Vânt Presiune Umiditate
00:00 +14°C° 0.1 mm 3 m/s 738 mmHg 97%
01:00 +14°C° 0.1 mm 4 m/s 738 mmHg 97%
02:00 +14°C° 0.1 mm 4 m/s 738 mmHg 96%
03:00 +14°C° 0.1 mm 4 m/s 738 mmHg 96%
04:00 +14°C° 0.3 mm 4 m/s 738 mmHg 96%
05:00 +14°C° 0.3 mm 4 m/s 738 mmHg 96%
06:00 +14°C° 0.3 mm 4 m/s 738 mmHg 96%
07:00 +14°C° 0.9 mm 5 m/s 738 mmHg 96%
08:00 +14°C° 0.9 mm 6 m/s 739 mmHg 96%
09:00 +14°C° 0.9 mm 7 m/s 739 mmHg 96%
10:00 +14°C° 0.4 mm 7 m/s 739 mmHg 94%
11:00 +15°C° 0.4 mm 8 m/s 740 mmHg 93%
12:00 +15°C° 0.4 mm 8 m/s 740 mmHg 91%
13:00 +16°C° 0.3 mm 7 m/s 740 mmHg 87%
14:00 +16°C° 0.3 mm 7 m/s 741 mmHg 83%
15:00 +17°C° 0.3 mm 7 m/s 741 mmHg 79%
16:00 +17°C° 0.2 mm 6 m/s 741 mmHg 78%
17:00 +16°C° 0.2 mm 6 m/s 741 mmHg 77%
18:00 +16°C° 0.2 mm 6 m/s 741 mmHg 76%
19:00 +15°C° 0 mm 5 m/s 741 mmHg 81%
20:00 +14°C° 0 mm 5 m/s 741 mmHg 86%
21:00 +13°C° 0 mm 4 m/s 741 mmHg 91%
22:00 +13°C° 0 mm 4 m/s 741 mmHg 91%
23:00 +13°C° 0 mm 4 m/s 740 mmHg 90%

7 August, Sâmbătă

Timp Temperatura Precipitaţii Vânt Presiune Umiditate
00:00 +13°C° 0 mm 4 m/s 740 mmHg 90%
01:00 +13°C° 0 mm 4 m/s 740 mmHg 91%
02:00 +13°C° 0 mm 3 m/s 740 mmHg 92%
03:00 +12°C° 0 mm 3 m/s 740 mmHg 93%
04:00 +13°C° 0 mm 3 m/s 740 mmHg 92%
05:00 +14°C° 0 mm 2 m/s 739 mmHg 91%
06:00 +14°C° 0 mm 2 m/s 739 mmHg 90%
07:00 +15°C° 0.1 mm 2 m/s 739 mmHg 88%
08:00 +15°C° 0.1 mm 2 m/s 740 mmHg 86%
09:00 +16°C° 0.1 mm 2 m/s 740 mmHg 84%
10:00 +16°C° 0.1 mm 2 m/s 740 mmHg 82%
11:00 +17°C° 0.1 mm 3 m/s 740 mmHg 79%
12:00 +17°C° 0.1 mm 3 m/s 740 mmHg 77%
13:00 +18°C° 0.3 mm 4 m/s 740 mmHg 79%
14:00 +18°C° 0.3 mm 4 m/s 741 mmHg 80%
15:00 +17°C° 0.3 mm 5 m/s 741 mmHg 82%
16:00 +16°C° 0.4 mm 5 m/s 741 mmHg 85%
17:00 +15°C° 0.4 mm 6 m/s 741 mmHg 88%
18:00 +14°C° 0.4 mm 6 m/s 742 mmHg 91%
19:00 +14°C° 0.3 mm 6 m/s 742 mmHg 92%
20:00 +14°C° 0.3 mm 5 m/s 742 mmHg 94%
21:00 +13°C° 0.3 mm 5 m/s 743 mmHg 95%
22:00 +14°C° 0.4 mm 5 m/s 743 mmHg 96%
23:00 +14°C° 0.4 mm 6 m/s 743 mmHg 96%

8 August, Duminică

Timp Temperatura Precipitaţii Vânt Presiune Umiditate
00:00 +14°C° 0.4 mm 7 m/s 744 mmHg 97%
01:00 +14°C° 0.3 mm 7 m/s 744 mmHg 97%
02:00 +14°C° 0.3 mm 6 m/s 744 mmHg 97%
03:00 +14°C° 0.3 mm 6 m/s 745 mmHg 97%
04:00 +14°C° 0.3 mm 6 m/s 745 mmHg 97%
05:00 +14°C° 0.3 mm 6 m/s 746 mmHg 97%
06:00 +14°C° 0.3 mm 6 m/s 746 mmHg 97%
07:00 +14°C° 0.4 mm 7 m/s 747 mmHg 96%
08:00 +14°C° 0.4 mm 7 m/s 747 mmHg 96%
09:00 +14°C° 0.4 mm 7 m/s 748 mmHg 95%
10:00 +15°C° 0.2 mm 7 m/s 748 mmHg 92%
11:00 +16°C° 0.2 mm 7 m/s 749 mmHg 89%
12:00 +16°C° 0.2 mm 7 m/s 749 mmHg 85%
13:00 +17°C° 0.1 mm 7 m/s 750 mmHg 79%
14:00 +17°C° 0.1 mm 7 m/s 750 mmHg 73%
15:00 +18°C° 0.1 mm 7 m/s 751 mmHg 67%
16:00 +17°C° 0 mm 7 m/s 751 mmHg 69%
17:00 +17°C° 0 mm 6 m/s 751 mmHg 71%
18:00 +16°C° 0 mm 6 m/s 751 mmHg 73%
19:00 +16°C° 0.2 mm 6 m/s 751 mmHg 79%
20:00 +15°C° 0.2 mm 6 m/s 752 mmHg 85%
21:00 +15°C° 0.2 mm 6 m/s 752 mmHg 91%
22:00 +15°C° 0.2 mm 6 m/s 752 mmHg 91%
23:00 +15°C° 0.2 mm 7 m/s 752 mmHg 91%
Arată mai mult

Formular de consimțământ

Meteoprog și furnizorii noștri de servicii pot stoca și accesa date personale, precum cookies, identificatori de dispozitiv sau alte tehnologii similare pe dispozitivul dumneavoastră și procesa astfel de date pentru a personaliza conținutul și reclamele, dar și pentru a oferi caracteristici de social media și pentru a analiza traficul.

  • Stocarea și/sau accesarea informațiilor pe dispozitivul dumneavoastră

    Cookies, identificatori de dispozitiv sau alte informații pot fi stocate sau accesate pe dispozitiv în scopurile indicate mai sus.

  • Reclame și conținut personalizat, evaluarea reclamelor și a conținutului, informații despre audiențe și dezvoltarea produselor

    Reclamele și conținutul pot fi personalizate pe baza unui profil. Pot fi adăugate date suplimentare pentru a personaliza mai bine reclamele și conținutul. Performanța reclamelor și conținutului poate fi măsurată. Pot fi obținute informații despre utilizatorii care au văzut reclamele și conținutul. Aceste date pot fi utilizate pentru a dezvolta sau îmbunătăți experiența utilizatorilor, sistemele și software-ul.

Dând clic pe ‘Sunt de acord’, permiteți utilizarea cookie-urilor menționate, a identificatorilor de dispozitiv, balizelor web sau altor tehnologii similare. Setările pot fi modificate din browser-ul dispozitivului dumneavoastră.

În anumite scopuri, interesele legitime pot prima asupra consimțământului. Puteți citi mai multe informații în acest sens în Politica privind Confidențialitatea Datelor și Cookie.